Total_Precipitation_Accumulation
0.00 0.02 0.09 0.23 0.56 0.99 1.01 0.61 0.40 0.21 0.24 0.34 0.47 0.55 0.50 0.46 0.55 0.88 0.45 0.15 0.06 0.03 0.05 0.10 0.15 0.10 0.08 0.08 0.11 0.12 0.12 0.11 0.10 0.08 0.06 0.06 0.06 0.07 0.09 0.12 0.14 0.15 0.16 0.16 0.14 0.17 0.17 0.16 0.15
0.00 0.03 0.12 0.35 0.77 0.92 0.78 0.48 0.25 0.19 0.23 0.35 0.43 0.39 0.35 0.31 0.27 0.19 0.21 0.21 0.12 0.06 0.05 0.05 0.10 0.11 0.08 0.08 0.10 0.12 0.12 0.10 0.10 0.08 0.07 0.07 0.08 0.10 0.12 0.15 0.16 0.16 0.17 0.15 0.15 0.18 0.16 0.15 0.18
0.01 0.04 0.13 0.35 0.61 0.55 0.43 0.27 0.21 0.22 0.31 0.42 0.41 0.34 0.34 0.37 0.22 0.12 0.17 0.20 0.13 0.06 0.04 0.05 0.07 0.09 0.08 0.08 0.10 0.11 0.11 0.10 0.09 0.08 0.08 0.09 0.11 0.13 0.13 0.14 0.15 0.16 0.18 0.17 0.18 0.18 0.14 0.14 0.17
0.02 0.05 0.15 0.26 0.29 0.30 0.25 0.21 0.18 0.20 0.35 0.53 0.56 0.38 0.27 0.25 0.19 0.14 0.14 0.13 0.09 0.07 0.05 0.06 0.10 0.09 0.09 0.09 0.11 0.12 0.11 0.10 0.10 0.09 0.10 0.12 0.12 0.14 0.14 0.16 0.17 0.18 0.18 0.17 0.18 0.17 0.15 0.18 0.19
0.02 0.08 0.26 0.26 0.20 0.21 0.22 0.18 0.17 0.21 0.30 0.54 0.61 0.54 0.40 0.30 0.25 0.19 0.20 0.11 0.06 0.06 0.07 0.08 0.12 0.11 0.10 0.09 0.11 0.11 0.11 0.11 0.10 0.09 0.10 0.13 0.14 0.15 0.15 0.17 0.18 0.20 0.20 0.19 0.17 0.16 0.18 0.22 0.26
0.03 0.09 0.15 0.15 0.10 0.10 0.12 0.13 0.20 0.25 0.42 0.53 0.52 0.57 0.55 0.39 0.33 0.22 0.24 0.14 0.08 0.06 0.07 0.10 0.13 0.12 0.11 0.11 0.12 0.12 0.12 0.12 0.12 0.12 0.12 0.13 0.14 0.16 0.17 0.17 0.18 0.21 0.22 0.22 0.19 0.17 0.19 0.20 0.23
0.01 0.02 0.04 0.08 0.08 0.07 0.08 0.12 0.24 0.31 0.58 0.70 0.75 0.69 0.70 0.58 0.37 0.27 0.25 0.20 0.18 0.13 0.09 0.13 0.13 0.13 0.13 0.14 0.14 0.14 0.15 0.15 0.15 0.15 0.14 0.14 0.15 0.17 0.19 0.20 0.20 0.24 0.25 0.24 0.23 0.23 0.23 0.20 0.22
0.00 0.01 0.03 0.04 0.05 0.06 0.08 0.11 0.20 0.29 0.50 0.55 0.69 0.81 0.94 0.72 0.45 0.37 0.36 0.35 0.34 0.33 0.27 0.23 0.21 0.20 0.18 0.17 0.18 0.18 0.18 0.19 0.19 0.17 0.18 0.20 0.23 0.25 0.28 0.27 0.28 0.32 0.32 0.33 0.35 0.36 0.36 0.33 0.31
0.00 0.01 0.02 0.03 0.02 0.04 0.05 0.11 0.17 0.30 0.39 0.43 0.56 0.72 0.86 0.62 0.51 0.55 0.63 0.62 0.60 0.52 0.51 0.41 0.34 0.28 0.27 0.26 0.23 0.28 0.28 0.28 0.30 0.32 0.32 0.39 0.59 0.62 0.63 0.53 0.55 0.55 0.54 0.56 0.58 0.58 0.59 0.56 0.51
0.00 0.01 0.02 0.01 0.01 0.03 0.06 0.11 0.18 0.27 0.57 0.82 0.98 0.90 0.75 0.71 0.71 0.72 0.76 0.76 0.81 0.72 0.56 0.58 0.54 0.38 0.37 0.40 0.46 0.63 0.62 0.64 0.67 0.72 0.70 0.90 1.03 0.97 0.77 0.77 0.94 0.99 1.03 1.02 1.02 1.10 1.05 0.88 0.70
0.00 0.01 0.01 0.00 0.00 0.01 0.05 0.10 0.11 0.25 0.74 1.30 1.45 1.13 0.79 0.88 0.96 1.00 1.02 1.07 0.95 0.93 0.76 0.83 0.86 0.69 0.58 0.71 0.66 0.78 0.97 1.13 1.12 1.10 1.19 1.33 1.19 1.02 0.91 1.02 1.24 1.32 1.38 1.39 1.52 1.70 1.46 1.43 1.39
0.00 0.00 0.00 0.00 0.01 0.01 0.04 0.10 0.14 0.28 0.73 1.16 1.20 0.96 0.78 0.96 1.08 1.29 1.38 1.49 1.51 1.42 1.35 1.30 1.33 1.23 1.11 1.00 1.00 0.96 0.97 1.08 1.22 1.27 1.26 1.45 1.47 1.42 1.34 1.31 1.32 1.40 1.51 1.74 1.80 1.92 1.98 2.02 1.79
0.00 0.00 0.00 0.00 0.01 0.02 0.05 0.10 0.20 0.36 0.50 0.56 0.68 0.72 0.81 1.08 1.36 1.68 1.82 1.93 1.98 2.16 2.23 2.20 2.02 1.78 1.78 1.68 1.47 1.19 1.19 1.17 1.18 1.36 1.41 1.56 1.64 1.72 1.73 1.61 1.57 1.39 1.50 1.79 2.03 1.95 2.11 2.25 2.13
0.00 0.00 0.00 0.01 0.01 0.02 0.04 0.10 0.24 0.39 0.44 0.47 0.58 0.64 0.77 1.18 1.68 2.12 2.16 2.25 2.43 2.97 3.31 3.08 2.84 2.51 2.31 2.15 1.96 1.81 1.58 1.48 1.34 1.40 1.51 1.73 1.87 1.92 1.95 1.79 1.69 1.40 1.43 1.66 1.92 1.94 2.12 2.13 2.16
0.00 0.01 0.03 0.04 0.03 0.07 0.06 0.14 0.37 0.57 0.45 0.45 0.62 0.69 0.78 1.15 1.57 2.30 2.64 2.83 3.01 3.59 4.07 3.80 3.63 3.53 3.17 2.87 2.47 2.08 1.74 1.52 1.57 1.73 1.91 2.03 2.13 2.18 2.15 1.99 1.70 1.53 1.68 1.76 1.77 1.83 2.21 2.06 1.94
0.01 0.01 0.06 0.07 0.05 0.08 0.09 0.37 0.57 0.62 0.51 0.53 0.78 0.77 0.79 1.09 1.56 2.28 2.88 3.30 3.56 3.79 4.12 4.36 4.09 4.32 4.09 3.59 3.07 2.59 2.29 2.18 2.09 2.06 2.19 2.10 2.09 2.11 2.26 1.95 1.61 1.72 1.89 1.84 1.79 1.84 2.07 2.07 2.16
0.01 0.03 0.07 0.11 0.10 0.10 0.14 0.51 0.67 0.50 0.54 0.65 0.76 0.84 0.93 1.17 1.51 1.99 2.61 3.13 3.60 4.06 4.46 4.81 4.97 4.96 4.42 3.85 3.37 3.05 2.80 2.63 2.31 1.91 1.73 1.61 1.53 1.54 1.58 1.30 1.20 1.41 1.49 1.36 1.31 1.57 1.74 1.77 1.90
0.02 0.05 0.11 0.23 0.18 0.12 0.17 0.44 0.58 0.52 0.53 0.70 0.83 0.83 0.97 1.19 1.53 1.91 2.42 2.87 3.43 4.16 4.92 5.27 5.25 4.71 4.14 3.59 3.06 2.81 2.52 2.34 2.08 1.68 1.43 1.23 1.15 1.12 1.13 0.92 0.89 1.13 1.22 1.19 1.29 1.36 1.37 1.31 1.39
0.02 0.05 0.12 0.19 0.13 0.13 0.23 0.43 0.50 0.55 0.63 0.80 0.95 0.93 1.00 1.13 1.47 1.87 2.32 2.83 3.48 4.30 5.17 5.42 5.03 4.34 3.68 3.10 2.54 2.14 1.83 1.65 1.61 1.38 1.16 1.08 1.05 1.02 1.10 0.93 1.01 1.11 1.13 1.13 1.16 1.18 1.10 0.93 1.09
0.05 0.07 0.12 0.16 0.11 0.13 0.20 0.41 0.60 0.71 0.83 0.82 0.87 0.94 0.92 1.13 1.51 1.95 2.48 2.91 3.28 3.77 4.47 4.62 4.15 3.43 2.69 2.20 1.98 1.80 1.60 1.35 1.20 1.11 1.04 0.86 0.85 0.87 0.92 0.91 0.76 0.80 0.85 0.78 0.81 0.99 1.03 0.87 0.96
0.07 0.08 0.12 0.14 0.07 0.12 0.20 0.49 0.77 0.89 0.75 0.61 0.53 0.64 0.68 0.84 1.32 1.98 2.49 2.80 3.07 3.24 3.19 3.21 2.92 2.34 1.92 1.67 1.53 1.40 1.34 1.22 1.03 0.90 0.79 0.65 0.61 0.62 0.67 0.66 0.66 0.73 0.75 0.77 0.76 0.79 0.85 0.80 0.75
0.07 0.05 0.05 0.05 0.06 0.20 0.29 0.76 1.00 0.89 0.75 0.60 0.46 0.43 0.47 0.65 1.08 1.84 2.14 2.20 2.29 2.35 2.12 2.06 2.02 1.79 1.60 1.44 1.26 1.07 0.87 0.84 0.76 0.70 0.65 0.58 0.53 0.52 0.50 0.52 0.51 0.57 0.64 0.75 0.65 0.67 0.70 0.71 0.62
0.05 0.04 0.04 0.07 0.11 0.25 0.43 0.73 1.01 0.84 0.78 0.59 0.42 0.37 0.42 0.53 0.80 1.14 1.20 1.30 1.41 1.47 1.45 1.52 1.69 1.69 1.56 1.46 1.38 1.25 0.97 0.81 0.73 0.70 0.68 0.61 0.58 0.53 0.49 0.48 0.49 0.48 0.47 0.52 0.57 0.67 0.64 0.64 0.59
0.04 0.05 0.11 0.23 0.34 0.66 0.67 0.73 1.04 0.88 0.68 0.45 0.33 0.34 0.29 0.36 0.53 0.72 0.76 0.79 0.84 0.85 0.94 1.12 1.46 1.58 1.51 1.41 1.34 1.19 1.02 0.89 0.76 0.67 0.60 0.55 0.55 0.57 0.54 0.51 0.54 0.50 0.47 0.49 0.52 0.55 0.56 0.61 0.66
0.05 0.09 0.26 0.60 1.00 1.12 0.69 0.71 0.99 0.63 0.42 0.31 0.23 0.21 0.25 0.35 0.45 0.58 0.70 0.70 0.65 0.63 0.68 0.83 1.02 1.13 1.16 1.21 1.24 1.17 1.10 0.97 0.82 0.69 0.55 0.49 0.49 0.48 0.54 0.56 0.57 0.55 0.54 0.52 0.51 0.51 0.53 0.59 0.67
0.07 0.09 0.18 0.36 0.46 0.57 0.58 0.96 1.07 0.54 0.35 0.23 0.15 0.14 0.18 0.25 0.31 0.35 0.43 0.43 0.44 0.50 0.52 0.58 0.71 0.80 0.87 0.95 1.02 1.01 0.99 0.92 0.80 0.75 0.59 0.49 0.47 0.50 0.55 0.54 0.51 0.51 0.51 0.50 0.53 0.47 0.47 0.57 0.66
0.06 0.06 0.07 0.08 0.14 0.35 0.64 0.86 0.74 0.46 0.29 0.17 0.12 0.10 0.10 0.12 0.14 0.16 0.16 0.18 0.23 0.33 0.45 0.52 0.59 0.64 0.70 0.76 0.85 0.87 0.86 0.86 0.85 0.79 0.67 0.56 0.58 0.58 0.61 0.53 0.51 0.49 0.49 0.51 0.55 0.54 0.57 0.63 0.66
0.07 0.06 0.06 0.05 0.15 0.33 0.57 0.85 0.84 0.54 0.34 0.17 0.11 0.09 0.08 0.08 0.07 0.09 0.11 0.11 0.12 0.16 0.31 0.45 0.51 0.59 0.68 0.71 0.71 0.71 0.81 0.80 0.80 0.76 0.68 0.65 0.62 0.60 0.65 0.63 0.59 0.55 0.53 0.59 0.67 0.64 0.64 0.71 0.80
0.06 0.06 0.06 0.06 0.08 0.19 0.43 0.63 0.50 0.35 0.20 0.14 0.10 0.07 0.08 0.09 0.07 0.07 0.08 0.08 0.10 0.12 0.20 0.31 0.40 0.48 0.54 0.57 0.61 0.71 0.77 0.75 0.72 0.73 0.68 0.67 0.63 0.63 0.62 0.61 0.63 0.60 0.65 0.82 0.99 0.95 0.87 0.90 0.97
0.06 0.06 0.07 0.09 0.09 0.13 0.24 0.32 0.23 0.23 0.19 0.16 0.12 0.10 0.13 0.12 0.09 0.10 0.09 0.07 0.08 0.11 0.14 0.22 0.26 0.28 0.31 0.37 0.45 0.55 0.67 0.67 0.67 0.69 0.72 0.71 0.67 0.60 0.53 0.54 0.58 0.56 0.63 0.79 1.06 1.20 1.20 1.17 1.08